Milwaukee Timmerman, WI

9:52 AM CDT on June 27, 2017 (GMT -0500)
Timmerman

Weather History for KMWC - May, 2013

Change the Weather History Date:

Tuesday, May 28, 2013

  Actual Average Record
Temperature  
Mean Temperature 58 °F -  
Max Temperature 71 °F 73 °F 93 °F (1991)
Min Temperature 46 °F 52 °F 31 °F (1949)
Degree Days  
Heating Degree Days 6    
Growing Degree Days 8 (Base 50)    
Moisture  
Dew Point 46 °F    
Average Humidity 94    
Maximum Humidity 100    
Minimum Humidity 62    
Precipitation  
Precipitation 0.33 in - - ()
Sea Level Pressure  
Sea Level Pressure 29.81 in    
Wind  
Wind Speed 4 mph (East)    
Max Wind Speed 12 mph    
Max Gust Speed -    
Visibility 3 miles    
Events Rain , Thunderstorm    
Averages and records for this station are not official NWS values.
T = Trace of Precipitation, MM = Missing Value Source: NWS Daily Summary

Daily Weather History Graph

Daily Weather History Graph

Search for Another Location

Airport or City:

Trip Planner

Search our weather history database for the weather conditions in past years. The results will help you decide how hot, cold, wet, or windy it might be!

Date:

Astronomy

May. 28, 2013 Rise Set
Actual Time 5:17 AM CDT 8:21 PM CDT
Civil Twilight 4:43 AM CDT 8:56 PM CDT
Nautical Twilight 3:59 AM CDT 9:40 PM CDT
Astronomical Twilight 3:07 AM CDT 10:32 PM CDT
Moon 11:41 PM CDT (5/28) 9:07 AM CDT (5/28)
Length of Visible Light 16h 12m
Length of Day
15h 04m
Waning Gibbous, 82% of the Moon is Illuminated
May 28
Waning Gibbous
May 31
Last Quarter
Jun 8
New
Jun 16
First Quarter
Jun 23
Full

Hourly Weather History & Observations

Time (CDT) Temp. Windchill Dew Point Humidity Pressure Visibility Wind Dir Wind Speed Gust Speed Precip Events Conditions
12:15 AM 50.0 °F - 46.4 °F 87% 29.91 in 7.0 mi Calm Calm - N/A   Overcast
12:35 AM 48.2 °F - 46.4 °F 93% 29.91 in 5.0 mi East 4.6 mph - N/A   Overcast
12:55 AM 48.2 °F - 46.4 °F 93% 29.91 in 2.5 mi ESE 3.5 mph - N/A   Overcast
1:15 AM 48.2 °F - 46.4 °F 93% 29.91 in 2.0 mi East 3.5 mph - N/A   Overcast
1:35 AM 48.2 °F - 46.4 °F 93% 29.88 in 1.8 mi ENE 5.8 mph - N/A   Overcast
2:15 AM 48.2 °F - 46.4 °F 93% 29.87 in 1.0 mi ESE 5.8 mph - N/A   Overcast
2:35 AM 48.2 °F - 46.4 °F 93% 29.86 in 0.8 mi SE 5.8 mph - N/A   Overcast
2:55 AM 48.2 °F - 46.4 °F 93% 29.85 in 0.8 mi East 4.6 mph - N/A   Overcast
3:15 AM 48.2 °F - 46.4 °F 93% 29.84 in 1.0 mi East 4.6 mph - N/A   Overcast
3:35 AM 48.2 °F - 46.4 °F 93% 29.85 in 1.2 mi ENE 4.6 mph - N/A   Overcast
3:55 AM 48.2 °F - 46.4 °F 93% 29.84 in 1.0 mi East 3.5 mph - 0.06 in Rain Heavy Rain
4:15 AM 48.2 °F - 46.4 °F 93% 29.83 in 3.0 mi East 3.5 mph - 0.04 in Rain Rain
4:35 AM 48.2 °F - 46.4 °F 93% 29.84 in 4.0 mi ENE 4.6 mph - 0.06 in Rain Rain
4:55 AM 46.4 °F 41.9 °F 46.4 °F 100% 29.82 in 4.0 mi East 9.2 mph - 0.10 in Rain Heavy Rain
5:15 AM 46.4 °F 44.3 °F 46.4 °F 100% 29.83 in 5.0 mi ENE 4.6 mph - 0.02 in Rain Light Rain
5:35 AM 46.4 °F - 46.4 °F 100% 29.83 in 5.0 mi Calm Calm - 0.02 in Rain Light Rain
5:55 AM 46.4 °F 45.2 °F 46.4 °F 100% 29.82 in 4.0 mi ENE 3.5 mph - 0.02 in Rain Light Rain
6:15 AM 46.4 °F 43.5 °F 46.4 °F 100% 29.81 in 1.8 mi NE 5.8 mph - N/A   Light Drizzle
6:35 AM 46.4 °F 45.2 °F 46.4 °F 100% 29.81 in 2.0 mi NE 3.5 mph - 0.10 in Rain Rain
6:45 AM 48.2 °F - 46.4 °F 93% 29.82 in 2.0 mi ENE 4.6 mph - N/A Rain Rain
6:55 AM 46.4 °F - 46.4 °F 100% 29.82 in 2.5 mi Calm Calm - 0.15 in Rain Heavy Rain
7:45 AM 48.2 °F - 46.4 °F 93% 29.81 in 3.0 mi Calm Calm - N/A Rain , Thunderstorm Thunderstorms and Rain
8:45 AM 50.0 °F - 37.4 °F 62% 29.79 in 3.0 mi NE 3.5 mph - N/A   Overcast
9:45 AM 51.8 °F - 50.0 °F 94% 29.78 in 3.0 mi East 3.5 mph - N/A Rain Light Rain
10:50 AM 55.4 °F - - N/A% 29.77 in 2.5 mi SSE 6.9 mph - N/A   Haze
11:50 AM 62.6 °F - - N/A% 29.76 in 5.0 mi South 6.9 mph - N/A   Haze
12:45 PM 66.2 °F - - N/A% 29.77 in 4.0 mi South 9.2 mph - N/A   Haze
1:45 PM 71.6 °F - - N/A% 29.76 in 10.0 mi SW 11.5 mph - N/A   Mostly Cloudy
2:45 PM 69.8 °F - - N/A% 29.76 in 7.0 mi WSW 6.9 mph - N/A   Overcast
3:45 PM 69.8 °F - - N/A% 29.76 in 2.5 mi SSW 5.8 mph - N/A   Drizzle
4:45 PM 68.0 °F - - N/A% 29.76 in 3.0 mi Calm Calm - N/A   Haze
5:45 PM 68.0 °F - - N/A% 29.76 in 5.0 mi SSW 3.5 mph - N/A   Light Drizzle
6:45 PM 69.8 °F - - N/A% 29.76 in 5.0 mi Calm Calm - N/A   Overcast
7:45 PM 68.0 °F - - N/A% 29.74 in 5.0 mi Calm Calm - N/A   Light Drizzle
8:47 PM 66.2 °F - - N/A% 29.72 in 4.0 mi Calm Calm - N/A   Haze
9:15 PM 64.4 °F - - N/A% 29.75 in 3.0 mi Calm Calm - N/A   Overcast
9:35 PM 60.8 °F - - N/A% 29.77 in 4.0 mi NNE 5.8 mph - N/A Rain Light Rain
9:55 PM 57.2 °F - - N/A% 29.78 in 4.0 mi East 4.6 mph - N/A   Haze
10:15 PM 55.4 °F - - N/A% 29.78 in 4.0 mi North 4.6 mph - N/A   Haze
10:35 PM 55.4 °F - - N/A% 29.79 in 4.0 mi ENE 3.5 mph - N/A   Haze
10:55 PM 55.4 °F - - N/A% 29.80 in 4.0 mi East 5.8 mph - N/A   Haze
11:15 PM 53.6 °F - - N/A% 29.80 in 4.0 mi NNE 8.1 mph - N/A   Haze
11:35 PM 53.6 °F - - N/A% 29.81 in 2.0 mi East 3.5 mph - N/A   Overcast
11:55 PM 53.6 °F - - N/A% 29.81 in 1.5 mi Calm Calm - N/A   Overcast